Home   Weather   Monaco   Past weeks

Flag for Monaco Past Weather in Monaco, Monaco — Yesterday and Last 2 Weeks

Now
46 °F

Passing clouds.


Feels Like: 40 °F
Forecast: 45 / 53 °F
Wind: 14 mph from Northwest

Location: Nice Airport

Current Time: Jan 25, 2017 at 12:46:47 am

Latest Report: Jan 25, 2017 at 12:00 am


Visibility: N/A

Pressure: 30.04 "Hg

Humidity: 62%

Dew Point: 34 °F

Location of MonacoLocation

Past Weather in Monaco — Graph

°F

Monaco Temperature Yesterday

Maximum temperature yesterday: 57 °F (at 12:30 pm)
Minimum temperature yesterday: 43 °F (at 5:30 am)
Average temperature yesterday: 49 °F

High & Low Weather Summary for the Past Weeks

 TemperatureHumidityPressure
High59 °F (Jan 21, 2:30 pm)87% (Jan 10, 10:30 pm)30.36 "Hg (Jan 10, 10:30 pm)
Low28 °F (Jan 17, 4:30 am)12% (Jan 16, 2:30 pm)29.53 "Hg (Jan 13, 6:30 am)
Average46 °F48%30.00 "Hg
* Reported Jan 9 11:00 pm — Jan 24 11:30 pm, Monaco, Weather by CustomWeather, © 2017

Note: Actual official high and low records may vary slightly from our data, if they occured in-between our weather recording intervals... More about our weather records

Advertising

Monaco Weather History for the Previous 24 Hours

Scroll right to see more
 ConditionsComfort  
Time TempWeatherWind HumidityBarometerVisibility
11:30 pm
Tue, Jan 24
46 °FPassing clouds.14 mph62%30.04 "HgN/A
11:00 pm46 °FPassing clouds.13 mph66%30.04 "HgN/A
10:30 pm46 °FClear.12 mph66%30.04 "Hg10 mi
10:00 pm46 °FClear.10 mph66%30.04 "Hg10 mi
9:30 pm46 °FClear.3 mph66%30.01 "Hg10 mi
9:00 pm46 °FClear.10 mph66%30.01 "Hg10 mi
8:30 pm46 °FPassing clouds.6 mph66%30.01 "HgN/A
8:00 pm46 °FClear.9 mph71%30.01 "Hg10 mi
7:30 pm48 °FClear.8 mph66%30.01 "Hg10 mi
7:00 pm55 °FClear.6 mph51%30.01 "Hg10 mi
6:30 pm55 °FClear.7 mph55%30.01 "Hg10 mi
6:00 pm55 °FClear.9 mph59%29.98 "Hg10 mi
5:30 pm55 °FSunny.10 mph59%29.98 "Hg10 mi
5:00 pm57 °FSunny.10 mph55%29.98 "Hg10 mi
4:30 pm57 °FSunny.12 mph51%29.98 "Hg10 mi
4:00 pm57 °FSunny.12 mph55%29.98 "Hg10 mi
3:30 pm57 °FSunny.12 mph51%29.95 "Hg10 mi
3:00 pm57 °FSunny.12 mph44%29.95 "Hg10 mi
2:30 pm57 °FSunny.13 mph51%29.95 "Hg10 mi
2:00 pm57 °FSunny.13 mph59%29.98 "Hg10 mi
1:30 pm57 °FSunny.12 mph51%29.98 "Hg10 mi
1:00 pm57 °FSunny.7 mph51%29.98 "Hg10 mi
12:30 pm57 °FPassing clouds.5 mph39%30.01 "HgN/A
12:00 pm55 °FSunny.9 mph33%30.01 "Hg10 mi
11:30 am54 °FPassing clouds.12 mph33%30.01 "HgN/A
11:00 am52 °FSunny.12 mph38%30.01 "Hg10 mi
10:30 am48 °FSunny.14 mph43%30.01 "Hg10 mi
10:00 am46 °FSunny.15 mph46%30.01 "Hg10 mi
9:30 am45 °FSunny.15 mph53%30.01 "Hg10 mi
9:00 am43 °FSunny.15 mph53%30.01 "Hg10 mi
8:30 am43 °FSunny.13 mph57%29.98 "Hg10 mi
8:00 am43 °FSunny.14 mph57%29.98 "Hg10 mi
7:30 am43 °FClear.16 mph57%29.98 "Hg10 mi
7:00 am43 °FClear.15 mph57%29.98 "Hg10 mi
6:30 am43 °FClear.16 mph57%29.98 "Hg10 mi
6:00 am45 °FClear.14 mph57%29.98 "Hg10 mi
5:30 am43 °FClear.12 mph61%29.98 "Hg10 mi
5:00 am45 °FClear.15 mph57%29.98 "Hg10 mi
4:30 am45 °FClear.12 mph57%29.98 "Hg10 mi
4:00 am45 °FClear.14 mph57%29.95 "Hg10 mi
3:30 am45 °FClear.13 mph61%29.98 "Hg10 mi
3:00 am45 °FClear.14 mph61%29.98 "Hg10 mi
2:30 am45 °FClear.13 mph61%29.98 "Hg10 mi
2:00 am45 °FClear.12 mph61%29.98 "Hg10 mi
1:30 am45 °FClear.10 mph61%29.98 "Hg10 mi
1:00 am45 °FClear.15 mph61%29.98 "Hg10 mi
12:30 am45 °FClear.12 mph66%29.98 "Hg10 mi
12:00 am45 °FClear.12 mph66%29.98 "Hg10 mi
Weather by CustomWeather, © 2017

See weather overviewHow to use our weather pages